| time (UTC) | temp F | wind direction | speed MPH | gust MPH | rain 1hr in | rain 24hr in | rain mn in | humidity % | barometer mb |
| 20260902192112 | 76 | 258 | 4.0 | 7.0 | 0.00 | 0.00 | 0.00 | 60 | 1016.7 |
| 20260902191607 | 77 | 301 | 2.0 | 9.0 | 0.00 | 0.00 | 0.00 | 59 | 1016.8 |
| 20260902191101 | 76 | 263 | 3.0 | 7.0 | 0.00 | 0.00 | 0.00 | 59 | 1016.9 |
| 20260902190557 | 77 | 210 | 2.0 | 9.0 | 0.00 | 0.00 | 0.00 | 60 | 1016.8 |
| 20260902190052 | 77 | 274 | 5.0 | 9.0 | 0.00 | 0.00 | 0.00 | 59 | 1016.7 |
| 20260902185548 | 76 | 297 | 2.0 | 8.0 | 0.00 | 0.00 | 0.00 | 62 | 1016.8 |
| 20260902185044 | 77 | 319 | 3.0 | 7.0 | 0.00 | 0.00 | 0.00 | 61 | 1016.6 |
| 20260902184538 | 77 | 277 | 2.0 | 4.0 | 0.00 | 0.00 | 0.00 | 60 | 1016.6 |
| 20260902184034 | 76 | 301 | 5.0 | 8.0 | 0.00 | 0.00 | 0.00 | 60 | 1016.6 |
| 20260902183530 | 76 | 270 | 2.0 | 7.0 | 0.00 | 0.00 | 0.00 | 59 | 1016.8 |
| 20260902183026 | 77 | 308 | 5.0 | 8.0 | 0.00 | 0.00 | 0.00 | 59 | 1016.4 |
| 20260902182522 | 76 | 240 | 1.0 | 4.0 | 0.00 | 0.00 | 0.00 | 60 | 1016.5 |
| 20260902182018 | 75 | 293 | 2.0 | 4.0 | 0.00 | 0.00 | 0.00 | 62 | 1016.6 |
| 20260902181514 | 75 | 321 | 3.0 | 7.0 | 0.00 | 0.00 | 0.00 | 64 | 1016.7 |
| 20260902181008 | 76 | 298 | 4.0 | 7.0 | 0.00 | 0.00 | 0.00 | 62 | 1016.7 |
| 20260902180502 | 76 | 304 | 4.0 | 9.0 | 0.00 | 0.00 | 0.00 | 61 | 1016.7 |
| 20260902175959 | 76 | 209 | 2.0 | 3.0 | 0.00 | 0.00 | 0.00 | 61 | 1016.6 |
| 20260902175458 | 77 | 221 | 1.0 | 7.0 | 0.00 | 0.00 | 0.00 | 59 | 1016.5 |
| 20260902174954 | 77 | 296 | 4.0 | 6.0 | 0.00 | 0.00 | 0.00 | 60 | 1016.4 |
| 20260902174451 | 77 | 233 | 2.0 | 6.0 | 0.00 | 0.00 | 0.00 | 59 | 1016.5 |
| 20260902173946 | 76 | 258 | 3.0 | 6.0 | 0.00 | 0.00 | 0.00 | 58 | 1016.5 |
| 20260902173445 | 76 | 213 | 4.0 | 6.0 | 0.00 | 0.00 | 0.00 | 58 | 1016.3 |
| 20260902172941 | 75 | 226 | 3.0 | 8.0 | 0.00 | 0.00 | 0.00 | 60 | 1016.4 |
| 20260902172440 | 75 | 280 | 6.0 | 10.0 | 0.00 | 0.00 | 0.00 | 60 | 1016.4 |
| 20260902171935 | 76 | 309 | 1.0 | 4.0 | 0.00 | 0.00 | 0.00 | 60 | 1016.4 |
| 20260902171430 | 76 | 220 | 1.0 | 6.0 | 0.00 | 0.00 | 0.00 | 60 | 1016.3 |
| 20260902170927 | 75 | 19 | 3.0 | 9.0 | 0.00 | 0.00 | 0.00 | 60 | 1016.4 |
| 20260902170421 | 75 | 321 | 4.0 | 7.0 | 0.00 | 0.00 | 0.00 | 62 | 1016.6 |
| 20260902165917 | 75 | 255 | 2.0 | 10.0 | 0.00 | 0.00 | 0.00 | 62 | 1016.4 |
| 20260902165416 | 75 | 51 | 4.0 | 6.0 | 0.00 | 0.00 | 0.00 | 63 | 1016.5 |
| 20260902164911 | 74 | 287 | 6.0 | 7.0 | 0.00 | 0.00 | 0.00 | 62 | 1016.7 |
| 20260902164406 | 75 | 273 | 1.0 | 7.0 | 0.00 | 0.00 | 0.00 | 62 | 1016.5 |
| 20260902163905 | 75 | 238 | 2.0 | 8.0 | 0.00 | 0.00 | 0.00 | 62 | 1016.6 |
| 20260902163400 | 76 | 212 | 1.0 | 2.0 | 0.00 | 0.00 | 0.00 | 62 | 1016.5 |
| 20260902162858 | 75 | 276 | 1.0 | 2.0 | 0.00 | 0.00 | 0.00 | 64 | 1016.6 |
| 20260902162354 | 76 | 247 | 3.0 | 4.0 | 0.00 | 0.00 | 0.00 | 63 | 1016.5 |
| 20260902161854 | 75 | 206 | 1.0 | 4.0 | 0.00 | 0.00 | 0.00 | 67 | 1016.4 |
| 20260902161349 | 75 | 195 | 1.0 | 3.0 | 0.00 | 0.00 | 0.00 | 67 | 1016.3 |
| 20260902160845 | 75 | 234 | 1.0 | 2.0 | 0.00 | 0.00 | 0.00 | 68 | 1016.3 |
| 20260902160341 | 74 | 302 | 3.0 | 4.0 | 0.00 | 0.00 | 0.00 | 70 | 1016.6 |
| 20260902155838 | 74 | 204 | 1.0 | 1.0 | 0.00 | 0.00 | 0.00 | 69 | 1016.7 |
| 20260902155337 | 75 | 195 | 0.0 | 1.0 | 0.00 | 0.00 | 0.00 | 70 | 1016.7 |
| 20260902154832 | 74 | 197 | 1.0 | 2.0 | 0.00 | 0.00 | 0.00 | 69 | 1016.5 |
| 20260902154328 | 73 | 192 | 2.0 | 3.0 | 0.00 | 0.00 | 0.00 | 73 | 1016.9 |
| 20260902153827 | 73 | 80 | 1.0 | 2.0 | 0.00 | 0.00 | 0.00 | 74 | 1016.8 |
| 20260902153326 | 73 | 278 | 3.0 | 3.0 | 0.00 | 0.00 | 0.00 | 73 | 1016.9 |
| 20260902152822 | 72 | 209 | 0.0 | 4.0 | 0.00 | 0.00 | 0.00 | 74 | 1016.9 |
| 20260902152318 | 72 | 224 | 2.0 | 3.0 | 0.00 | 0.00 | 0.00 | 76 | 1017.0 |
| 20260902151814 | 71 | 222 | 0.0 | 2.0 | 0.00 | 0.00 | 0.00 | 78 | 1017.0 |
| 20260902151309 | 70 | 205 | 2.0 | 2.0 | 0.00 | 0.00 | 0.00 | 80 | 1016.9 |
| 20260902150803 | 70 | 245 | 2.0 | 3.0 | 0.00 | 0.00 | 0.00 | 79 | 1017.1 |
| 20260902150259 | 70 | 309 | 2.0 | 4.0 | 0.00 | 0.00 | 0.00 | 81 | 1016.9 |
| 20260902145759 | 70 | 263 | 1.0 | 2.0 | 0.00 | 0.00 | 0.00 | 81 | 1016.7 |
| 20260902145255 | 70 | 283 | 2.0 | 3.0 | 0.00 | 0.00 | 0.00 | 81 | 1016.8 |
| 20260902144750 | 71 | 206 | 2.0 | 3.0 | 0.00 | 0.00 | 0.00 | 79 | 1016.7 |
| 20260902144246 | 71 | 230 | 1.0 | 2.0 | 0.00 | 0.00 | 0.00 | 78 | 1016.7 |
| 20260902143746 | 70 | 304 | 2.0 | 3.0 | 0.00 | 0.00 | 0.00 | 81 | 1016.7 |
| 20260902143241 | 69 | 265 | 0.0 | 3.0 | 0.00 | 0.00 | 0.00 | 82 | 1016.6 |
| 20260902142736 | 69 | 236 | 0.0 | 3.0 | 0.00 | 0.00 | 0.00 | 84 | 1016.4 |
| 20260902142233 | 69 | 262 | 2.0 | 2.0 | 0.00 | 0.00 | 0.00 | 84 | 1016.5 |
| 20260902141732 | 69 | 219 | 0.0 | 0.0 | 0.00 | 0.00 | 0.00 | 83 | 1016.6 |
| 20260902141228 | 70 | 195 | 1.0 | 2.0 | 0.00 | 0.00 | 0.00 | 82 | 1016.6 |
| 20260902140723 | 71 | 317 | 2.0 | 6.0 | 0.00 | 0.00 | 0.00 | 79 | 1016.5 |
| 20260902140218 | 70 | 216 | 1.0 | 1.0 | 0.00 | 0.00 | 0.00 | 81 | 1016.7 |
| 20260902135717 | 69 | 222 | 1.0 | 1.0 | 0.00 | 0.00 | 0.00 | 81 | 1016.6 |
| 20260902135213 | 69 | 220 | 0.0 | 2.0 | 0.00 | 0.00 | 0.00 | 82 | 1016.7 |
| 20260902134712 | 68 | 225 | 1.0 | 2.0 | 0.00 | 0.00 | 0.00 | 84 | 1016.7 |
| 20260902134208 | 68 | 225 | 1.0 | 3.0 | 0.00 | 0.00 | 0.00 | 84 | 1016.8 |
| 20260902133703 | 66 | 257 | 0.0 | 1.0 | 0.00 | 0.00 | 0.00 | 86 | 1016.7 |
| 20260902133202 | 66 | 258 | 0.0 | 0.0 | 0.00 | 0.00 | 0.00 | 87 | 1016.5 |
| 20260902132653 | 66 | 259 | 0.0 | 0.0 | 0.00 | 0.00 | 0.00 | 87 | 1016.6 |
| 20260902132148 | 66 | 258 | 0.0 | 0.0 | 0.00 | 0.00 | 0.00 | 87 | 1016.5 |
| 20260902131644 | 66 | 258 | 0.0 | 0.0 | 0.00 | 0.00 | 0.00 | 86 | 1016.5 |
| 20260902131139 | 67 | 259 | 1.0 | 1.0 | 0.00 | 0.00 | 0.00 | 85 | 1016.5 |
| 20260902130635 | 67 | 257 | 1.0 | 2.0 | 0.00 | 0.00 | 0.00 | 84 | 1016.5 |
| 20260902130130 | 66 | 258 | 0.0 | 2.0 | 0.00 | 0.00 | 0.00 | 85 | 1016.5 |
| 20260902125625 | 66 | 259 | 0.0 | 2.0 | 0.00 | 0.00 | 0.00 | 85 | 1016.7 |
| 20260902125120 | 66 | 259 | 0.0 | 1.0 | 0.00 | 0.00 | 0.00 | 86 | 1016.7 |
| 20260902124617 | 66 | 270 | 1.0 | 2.0 | 0.00 | 0.00 | 0.00 | 85 | 1016.4 |
| 20260902124117 | 66 | 275 | 1.0 | 2.0 | 0.00 | 0.00 | 0.00 | 84 | 1016.5 |
| 20260902123613 | 66 | 258 | 1.0 | 1.0 | 0.00 | 0.00 | 0.00 | 85 | 1016.6 |
| 20260902123108 | 65 | 263 | 1.0 | 1.0 | 0.00 | 0.00 | 0.00 | 87 | 1016.7 |
| 20260902122607 | 65 | 256 | 0.0 | 2.0 | 0.00 | 0.00 | 0.00 | 87 | 1016.6 |
| 20260902122103 | 65 | 254 | 0.0 | 2.0 | 0.00 | 0.00 | 0.00 | 87 | 1016.5 |
| 20260902121602 | 65 | 262 | 0.0 | 1.0 | 0.00 | 0.00 | 0.00 | 88 | 1016.5 |
| 20260902121057 | 64 | 256 | 0.0 | 0.0 | 0.00 | 0.00 | 0.00 | 89 | 1016.6 |
| 20260902120553 | 64 | 260 | 0.0 | 1.0 | 0.00 | 0.00 | 0.00 | 89 | 1016.4 |
| 20260902120049 | 64 | 258 | 0.0 | 1.0 | 0.00 | 0.00 | 0.00 | 89 | 1016.4 |
| 20260902115544 | 64 | 249 | 0.0 | 0.0 | 0.00 | 0.00 | 0.00 | 89 | 1016.4 |
| 20260902115041 | 64 | 272 | 1.0 | 2.0 | 0.00 | 0.00 | 0.00 | 89 | 1016.9 |
| 20260902114536 | 64 | 244 | 1.0 | 1.0 | 0.00 | 0.00 | 0.00 | 89 | 1016.6 |
| 20260902114030 | 64 | 257 | 0.0 | 1.0 | 0.00 | 0.00 | 0.00 | 89 | 1016.5 |
| 20260902113526 | 64 | 267 | 1.0 | 2.0 | 0.00 | 0.00 | 0.00 | 88 | 1016.6 |
| 20260902113021 | 64 | 268 | 1.0 | 1.0 | 0.00 | 0.00 | 0.00 | 88 | 1016.6 |
| 20260902112516 | 64 | 259 | 0.0 | 0.0 | 0.00 | 0.00 | 0.00 | 88 | 1016.4 |
| 20260902112013 | 64 | 271 | 1.0 | 2.0 | 0.00 | 0.00 | 0.00 | 88 | 1016.5 |
| 20260902111509 | 64 | 269 | 0.0 | 1.0 | 0.00 | 0.00 | 0.00 | 88 | 1016.4 |
| 20260902111004 | 63 | 286 | 1.0 | 2.0 | 0.00 | 0.00 | 0.00 | 88 | 1016.4 |
| 20260902110500 | 63 | 260 | 0.0 | 0.0 | 0.00 | 0.00 | 0.00 | 89 | 1016.2 |
| 20260902105955 | 63 | 267 | 1.0 | 1.0 | 0.00 | 0.00 | 0.00 | 89 | 1016.4 |
| 20260902105450 | 63 | 257 | 0.0 | 0.0 | 0.00 | 0.00 | 0.00 | 89 | 1016.2 |
| 20260902104944 | 64 | 263 | 0.0 | 0.0 | 0.00 | 0.00 | 0.00 | 88 | 1016.2 |
| 20260902104440 | 64 | 274 | 1.0 | 1.0 | 0.00 | 0.00 | 0.00 | 89 | 1016.4 |
| 20260902103935 | 64 | 260 | 0.0 | 1.0 | 0.00 | 0.00 | 0.00 | 89 | 1016.4 |
| 20260902103430 | 63 | 229 | 0.0 | 2.0 | 0.00 | 0.00 | 0.00 | 89 | 1016.5 |
| 20260902102925 | 63 | 235 | 0.0 | 0.0 | 0.00 | 0.00 | 0.00 | 90 | 1016.5 |
| 20260902102422 | 63 | 235 | 0.0 | 1.0 | 0.00 | 0.00 | 0.00 | 89 | 1016.3 |
| 20260902101918 | 63 | 250 | 0.0 | 0.0 | 0.00 | 0.00 | 0.00 | 89 | 1016.2 |
| 20260902101412 | 64 | 259 | 0.0 | 0.0 | 0.00 | 0.00 | 0.00 | 88 | 1016.4 |
| 20260902100911 | 64 | 263 | 1.0 | 2.0 | 0.00 | 0.00 | 0.00 | 88 | 1016.1 |
| 20260902100406 | 64 | 270 | 1.0 | 2.0 | 0.00 | 0.00 | 0.00 | 88 | 1016.2 |
| 20260902095901 | 64 | 252 | 0.0 | 0.0 | 0.00 | 0.00 | 0.00 | 89 | 1016.1 |
| 20260902095401 | 64 | 251 | 0.0 | 1.0 | 0.00 | 0.00 | 0.00 | 89 | 1016.2 |
| 20260902094855 | 64 | 241 | 0.0 | 1.0 | 0.00 | 0.00 | 0.00 | 89 | 1016.0 |
| 20260902094351 | 64 | 260 | 0.0 | 0.0 | 0.00 | 0.00 | 0.00 | 89 | 1016.3 |
| 20260902093850 | 64 | 253 | 0.0 | 0.0 | 0.00 | 0.00 | 0.00 | 89 | 1016.2 |
| 20260902093346 | 63 | 234 | 0.0 | 0.0 | 0.00 | 0.00 | 0.00 | 89 | 1016.3 |
| 20260902092844 | 63 | 358 | 2.0 | 2.0 | 0.00 | 0.00 | 0.00 | 90 | 1016.1 |
| 20260902092340 | 63 | 245 | 0.0 | 0.0 | 0.00 | 0.00 | 0.00 | 91 | 1016.2 |
| 20260902091835 | 63 | 246 | 0.0 | 0.0 | 0.00 | 0.00 | 0.00 | 91 | 1015.9 |
| 20260902091330 | 63 | 246 | 0.0 | 0.0 | 0.00 | 0.00 | 0.00 | 91 | 1015.7 |
| 20260902090827 | 63 | 246 | 0.0 | 0.0 | 0.00 | 0.00 | 0.00 | 91 | 1015.9 |
| 20260902090326 | 63 | 247 | 0.0 | 0.0 | 0.00 | 0.00 | 0.00 | 91 | 1015.8 |
| 20260902085825 | 63 | 251 | 0.0 | 0.0 | 0.00 | 0.00 | 0.00 | 91 | 1015.6 |
| 20260902085321 | 63 | 229 | 0.0 | 0.0 | 0.00 | 0.00 | 0.00 | 91 | 1015.7 |
| 20260902084816 | 63 | 217 | 0.0 | 0.0 | 0.00 | 0.00 | 0.00 | 91 | 1015.5 |
| 20260902084313 | 63 | 234 | 0.0 | 0.0 | 0.00 | 0.00 | 0.00 | 91 | 1015.7 |
| 20260902083807 | 62 | 220 | 0.0 | 0.0 | 0.00 | 0.00 | 0.00 | 92 | 1016.1 |
| 20260902083302 | 62 | 220 | 0.0 | 0.0 | 0.00 | 0.00 | 0.00 | 92 | 1015.9 |
| 20260902082802 | 62 | 220 | 0.0 | 0.0 | 0.00 | 0.00 | 0.00 | 92 | 1015.8 |
| 20260902082259 | 62 | 220 | 0.0 | 0.0 | 0.00 | 0.00 | 0.00 | 92 | 1015.8 |
| 20260902081755 | 62 | 219 | 0.0 | 1.0 | 0.00 | 0.00 | 0.00 | 91 | 1015.6 |
| 20260902081250 | 62 | 255 | 0.0 | 0.0 | 0.00 | 0.00 | 0.00 | 91 | 1015.7 |
| 20260902080746 | 62 | 261 | 0.0 | 0.0 | 0.00 | 0.00 | 0.00 | 92 | 1015.8 |
| 20260902080243 | 62 | 258 | 0.0 | 1.0 | 0.00 | 0.00 | 0.00 | 93 | 1015.7 |
| 20260902075741 | 61 | 73 | 0.0 | 0.0 | 0.00 | 0.00 | 0.00 | 93 | 1015.8 |
| 20260902075237 | 61 | 73 | 0.0 | 0.0 | 0.00 | 0.00 | 0.00 | 93 | 1015.5 |
| 20260902074732 | 61 | 214 | 0.0 | 1.0 | 0.00 | 0.00 | 0.00 | 93 | 1015.6 |
| 20260902074227 | 61 | 205 | 0.0 | 0.0 | 0.00 | 0.00 | 0.00 | 94 | 1015.5 |
| 20260902073723 | 61 | 163 | 1.0 | 1.0 | 0.00 | 0.00 | 0.00 | 93 | 1015.6 |
| 20260902073219 | 61 | 163 | 0.0 | 0.0 | 0.00 | 0.00 | 0.00 | 93 | 1015.5 |
| 20260902072715 | 61 | 207 | 0.0 | 0.0 | 0.00 | 0.00 | 0.00 | 93 | 1015.6 |
| 20260902072211 | 61 | 83 | 0.0 | 0.0 | 0.00 | 0.00 | 0.00 | 93 | 1015.4 |
| 20260902071707 | 62 | 83 | 0.0 | 1.0 | 0.00 | 0.00 | 0.00 | 92 | 1015.7 |
| 20260902071201 | 62 | 83 | 0.0 | 0.0 | 0.00 | 0.00 | 0.00 | 93 | 1015.9 |
| 20260902070658 | 62 | 82 | 1.0 | 1.0 | 0.00 | 0.00 | 0.00 | 92 | 1015.7 |
| 20260902070157 | 62 | 83 | 0.0 | 1.0 | 0.00 | 0.00 | 0.00 | 92 | 1015.9 |
| 20260902065655 | 62 | 83 | 0.0 | 1.0 | 0.00 | 0.00 | 0.00 | 92 | 1015.9 |
| 20260902065152 | 62 | 259 | 0.0 | 0.0 | 0.00 | 0.00 | 0.00 | 91 | 1016.0 |
| 20260902064647 | 62 | 258 | 0.0 | 0.0 | 0.00 | 0.00 | 0.00 | 90 | 1015.8 |
| 20260902064143 | 62 | 258 | 0.0 | 0.0 | 0.00 | 0.00 | 0.00 | 90 | 1016.0 |
| 20260902063638 | 63 | 260 | 0.0 | 0.0 | 0.00 | 0.00 | 0.00 | 90 | 1016.0 |
| 20260902063133 | 62 | 253 | 0.0 | 0.0 | 0.00 | 0.00 | 0.00 | 90 | 1016.0 |
| 20260902062632 | 62 | 241 | 0.0 | 0.0 | 0.00 | 0.00 | 0.00 | 90 | 1015.9 |
| 20260902062127 | 62 | 228 | 0.0 | 0.0 | 0.00 | 0.00 | 0.00 | 89 | 1015.9 |
| 20260902061626 | 63 | 228 | 0.0 | 0.0 | 0.00 | 0.00 | 0.00 | 89 | 1015.8 |
| 20260902061122 | 63 | 231 | 0.0 | 0.0 | 0.00 | 0.00 | 0.00 | 89 | 1016.0 |
| 20260902060619 | 63 | 231 | 0.0 | 0.0 | 0.00 | 0.00 | 0.00 | 88 | 1015.9 |
| 20260902060115 | 64 | 231 | 0.0 | 0.0 | 0.00 | 0.00 | 0.00 | 86 | 1015.9 |
| 20260902055610 | 64 | 231 | 0.0 | 0.0 | 0.00 | 0.00 | 0.00 | 85 | 1016.0 |
| 20260902055105 | 65 | 268 | 1.0 | 1.0 | 0.00 | 0.00 | 0.00 | 84 | 1016.0 |
| 20260902054600 | 65 | 269 | 1.0 | 1.0 | 0.00 | 0.00 | 0.00 | 83 | 1016.1 |
| 20260902054056 | 64 | 250 | 1.0 | 2.0 | 0.00 | 0.00 | 0.00 | 83 | 1016.0 |
| 20260902053551 | 64 | 253 | 0.0 | 1.0 | 0.00 | 0.00 | 0.00 | 83 | 1016.2 |
| 20260902053045 | 65 | 264 | 0.0 | 1.0 | 0.00 | 0.00 | 0.00 | 81 | 1015.9 |
| 20260902052544 | 65 | 263 | 0.0 | 0.0 | 0.00 | 0.00 | 0.00 | 81 | 1016.1 |
| 20260902052040 | 66 | 273 | 0.0 | 1.0 | 0.00 | 0.00 | 0.00 | 79 | 1016.0 |
| 20260902051535 | 66 | 304 | 0.0 | 1.0 | 0.00 | 0.00 | 0.00 | 79 | 1016.2 |
| 20260902051033 | 65 | 273 | 0.0 | 1.0 | 0.00 | 0.00 | 0.00 | 79 | 1016.1 |
| 20260902050529 | 65 | 272 | 0.0 | 0.0 | 0.00 | 0.00 | 0.00 | 79 | 1015.9 |
| 20260902050024 | 66 | 273 | 0.0 | 2.0 | 0.00 | 0.00 | 0.00 | 78 | 1016.0 |
| 20260902045519 | 66 | 273 | 1.0 | 2.0 | 0.00 | 0.00 | 0.00 | 78 | 1015.9 |
| 20260902045015 | 66 | 270 | 1.0 | 1.0 | 0.00 | 0.00 | 0.00 | 78 | 1015.7 |
| 20260902044510 | 66 | 290 | 1.0 | 3.0 | 0.00 | 0.00 | 0.00 | 77 | 1015.9 |
| 20260902044006 | 66 | 260 | 1.0 | 1.0 | 0.00 | 0.00 | 0.00 | 79 | 1016.0 |
| 20260902043501 | 65 | 243 | 0.0 | 2.0 | 0.00 | 0.00 | 0.00 | 79 | 1015.9 |
| 20260902042956 | 66 | 261 | 0.0 | 0.0 | 0.00 | 0.00 | 0.00 | 78 | 1015.8 |
| 20260902042455 | 66 | 261 | 1.0 | 1.0 | 0.00 | 0.00 | 0.00 | 77 | 1015.7 |
| 20260902041950 | 66 | 301 | 1.0 | 2.0 | 0.00 | 0.00 | 0.00 | 76 | 1015.7 |
| 20260902041445 | 66 | 298 | 1.0 | 3.0 | 0.00 | 0.00 | 0.00 | 76 | 1015.7 |
| 20260902040944 | 66 | 270 | 0.0 | 2.0 | 0.00 | 0.00 | 0.00 | 77 | 1015.6 |
| 20260902040439 | 66 | 291 | 1.0 | 2.0 | 0.00 | 0.00 | 0.00 | 77 | 1015.6 |
| 20260902035938 | 66 | 284 | 0.0 | 2.0 | 0.00 | 0.01 | 0.01 | 78 | 1015.5 |
| 20260902035433 | 66 | 279 | 1.0 | 1.0 | 0.00 | 0.01 | 0.01 | 78 | 1015.6 |
| 20260902034932 | 67 | 225 | 0.0 | 2.0 | 0.00 | 0.01 | 0.01 | 77 | 1015.4 |
| 20260902034422 | 67 | 292 | 2.0 | 3.0 | 0.00 | 0.01 | 0.01 | 77 | 1015.5 |
| 20260902033921 | 66 | 255 | 0.0 | 2.0 | 0.00 | 0.01 | 0.01 | 77 | 1015.5 |
| 20260902033415 | 67 | 249 | 1.0 | 1.0 | 0.00 | 0.01 | 0.01 | 77 | 1015.6 |
| 20260902032914 | 67 | 265 | 1.0 | 1.0 | 0.00 | 0.01 | 0.01 | 76 | 1015.4 |
| 20260902032409 | 67 | 270 | 1.0 | 2.0 | 0.00 | 0.01 | 0.01 | 76 | 1015.5 |
| 20260902031909 | 67 | 290 | 1.0 | 2.0 | 0.00 | 0.01 | 0.01 | 76 | 1015.7 |
| 20260902031359 | 67 | 267 | 1.0 | 2.0 | 0.00 | 0.01 | 0.01 | 76 | 1015.5 |
| 20260902030855 | 67 | 242 | 0.0 | 3.0 | 0.00 | 0.01 | 0.01 | 75 | 1015.3 |
| 20260902030349 | 67 | 266 | 0.0 | 1.0 | 0.00 | 0.01 | 0.01 | 75 | 1015.3 |
| 20260902025848 | 67 | 273 | 1.0 | 2.0 | 0.00 | 0.01 | 0.01 | 75 | 1015.4 |
| 20260902025344 | 67 | 272 | 0.0 | 1.0 | 0.00 | 0.01 | 0.01 | 75 | 1015.4 |
| 20260902024844 | 67 | 290 | 1.0 | 2.0 | 0.00 | 0.01 | 0.01 | 75 | 1015.6 |
| 20260902024339 | 67 | 275 | 0.0 | 2.0 | 0.00 | 0.01 | 0.01 | 74 | 1015.1 |
| 20260902023834 | 67 | 295 | 1.0 | 1.0 | 0.00 | 0.01 | 0.01 | 74 | 1015.4 |
| 20260902023331 | 67 | 268 | 0.0 | 1.0 | 0.00 | 0.01 | 0.01 | 74 | 1015.2 |
| 20260902022829 | 68 | 269 | 0.0 | 1.0 | 0.00 | 0.01 | 0.01 | 74 | 1015.2 |
| 20260902022325 | 67 | 247 | 0.0 | 1.0 | 0.00 | 0.01 | 0.01 | 74 | 1015.1 |
| 20260902021821 | 68 | 259 | 0.0 | 1.0 | 0.00 | 0.01 | 0.01 | 74 | 1015.3 |
| 20260902021320 | 68 | 272 | 0.0 | 1.0 | 0.00 | 0.01 | 0.01 | 73 | 1015.3 |
| 20260902020816 | 68 | 241 | 0.0 | 1.0 | 0.00 | 0.01 | 0.01 | 73 | 1015.1 |
| 20260902020312 | 68 | 260 | 1.0 | 1.0 | 0.00 | 0.01 | 0.01 | 72 | 1015.0 |
| 20260902015807 | 68 | 248 | 0.0 | 2.0 | 0.00 | 0.01 | 0.01 | 72 | 1015.3 |
| 20260902015306 | 68 | 279 | 1.0 | 3.0 | 0.00 | 0.01 | 0.01 | 72 | 1015.0 |
| 20260902014759 | 68 | 271 | 0.0 | 1.0 | 0.00 | 0.01 | 0.01 | 72 | 1015.1 |
| 20260902014256 | 68 | 273 | 1.0 | 2.0 | 0.00 | 0.01 | 0.01 | 72 | 1015.2 |
| 20260902013754 | 68 | 286 | 0.0 | 1.0 | 0.00 | 0.01 | 0.01 | 72 | 1015.3 |
| 20260902013250 | 69 | 255 | 0.0 | 2.0 | 0.00 | 0.01 | 0.01 | 72 | 1015.2 |
| 20260902012745 | 68 | 261 | 0.0 | 1.0 | 0.00 | 0.01 | 0.01 | 73 | 1015.2 |
| 20260902012241 | 69 | 277 | 1.0 | 1.0 | 0.00 | 0.01 | 0.01 | 72 | 1015.1 |
| 20260902011736 | 69 | 290 | 1.0 | 2.0 | 0.00 | 0.01 | 0.01 | 72 | 1015.0 |
| 20260902011236 | 69 | 279 | 1.0 | 1.0 | 0.00 | 0.01 | 0.01 | 71 | 1015.0 |
| 20260902010735 | 69 | 315 | 1.0 | 2.0 | 0.00 | 0.01 | 0.01 | 70 | 1015.0 |
| 20260902010231 | 70 | 263 | 0.0 | 2.0 | 0.00 | 0.01 | 0.01 | 69 | 1014.7 |
| 20260902005729 | 70 | 289 | 2.0 | 3.0 | 0.00 | 0.01 | 0.01 | 69 | 1015.0 |
| 20260902005225 | 70 | 297 | 1.0 | 2.0 | 0.00 | 0.01 | 0.01 | 68 | 1014.6 |
| 20260902004725 | 70 | 297 | 1.0 | 2.0 | 0.00 | 0.01 | 0.01 | 67 | 1014.9 |
| 20260902004220 | 71 | 298 | 1.0 | 2.0 | 0.00 | 0.01 | 0.01 | 67 | 1014.7 |
| 20260902003715 | 71 | 269 | 1.0 | 3.0 | 0.00 | 0.01 | 0.01 | 67 | 1014.7 |
| 20260902003211 | 71 | 251 | 0.0 | 2.0 | 0.00 | 0.01 | 0.01 | 66 | 1014.6 |
| 20260902002706 | 72 | 295 | 1.0 | 1.0 | 0.00 | 0.01 | 0.01 | 64 | 1014.6 |
| 20260902002200 | 72 | 284 | 1.0 | 3.0 | 0.00 | 0.01 | 0.01 | 64 | 1014.7 |
| 20260902001656 | 73 | 262 | 0.0 | 2.0 | 0.00 | 0.01 | 0.01 | 62 | 1014.7 |
| 20260902001155 | 74 | 271 | 1.0 | 1.0 | 0.00 | 0.01 | 0.01 | 60 | 1014.6 |
| 20260902000650 | 74 | 276 | 0.0 | 2.0 | 0.00 | 0.01 | 0.01 | 61 | 1014.6 |
| 20260902000146 | 74 | 257 | 1.0 | 1.0 | 0.00 | 0.01 | 0.01 | 61 | 1014.6 |
| 20260901235639 | 73 | 269 | 1.0 | 4.0 | 0.00 | 0.01 | 0.01 | 61 | 1014.6 |
| 20260901235135 | 74 | 311 | 2.0 | 4.0 | 0.00 | 0.01 | 0.01 | 61 | 1014.6 |
| 20260901234634 | 74 | 239 | 2.0 | 3.0 | 0.00 | 0.01 | 0.01 | 60 | 1014.6 |
| 20260901234129 | 74 | 282 | 2.0 | 3.0 | 0.00 | 0.01 | 0.01 | 59 | 1014.5 |
| 20260901233624 | 74 | 287 | 2.0 | 6.0 | 0.00 | 0.01 | 0.01 | 60 | 1014.7 |
| 20260901233120 | 74 | 306 | 2.0 | 3.0 | 0.00 | 0.01 | 0.01 | 60 | 1014.7 |
| 20260901232620 | 74 | 269 | 1.0 | 4.0 | 0.00 | 0.01 | 0.01 | 60 | 1014.9 |
| 20260901232115 | 74 | 256 | 1.0 | 6.0 | 0.00 | 0.01 | 0.01 | 60 | 1014.9 |
| 20260901231612 | 75 | 276 | 0.0 | 3.0 | 0.00 | 0.01 | 0.01 | 59 | 1014.7 |
| 20260901231108 | 75 | 265 | 1.0 | 6.0 | 0.00 | 0.01 | 0.01 | 59 | 1014.7 |
| 20260901230603 | 75 | 281 | 2.0 | 2.0 | 0.00 | 0.01 | 0.01 | 58 | 1014.6 |
| 20260901230057 | 76 | 273 | 1.0 | 4.0 | 0.00 | 0.01 | 0.01 | 57 | 1014.9 |
| 20260901225552 | 76 | 297 | 2.0 | 6.0 | 0.00 | 0.01 | 0.01 | 56 | 1014.9 |
| 20260901225052 | 77 | 279 | 1.0 | 6.0 | 0.00 | 0.01 | 0.01 | 55 | 1014.9 |
| 20260901224548 | 78 | 263 | 2.0 | 6.0 | 0.00 | 0.01 | 0.01 | 53 | 1014.9 |
| 20260901224044 | 79 | 293 | 4.0 | 6.0 | 0.00 | 0.01 | 0.01 | 52 | 1014.9 |
| 20260901223539 | 79 | 293 | 3.0 | 7.0 | 0.00 | 0.01 | 0.01 | 52 | 1015.0 |
| 20260901223035 | 79 | 293 | 3.0 | 6.0 | 0.00 | 0.01 | 0.01 | 51 | 1015.0 |
| 20260901222531 | 80 | 217 | 2.0 | 7.0 | 0.00 | 0.01 | 0.01 | 49 | 1014.7 |
| 20260901222026 | 79 | 237 | 2.0 | 7.0 | 0.00 | 0.01 | 0.01 | 51 | 1015.1 |
| 20260901221522 | 79 | 297 | 8.0 | 10.0 | 0.00 | 0.01 | 0.01 | 50 | 1015.0 |
| 20260901221017 | 78 | 289 | 4.0 | 6.0 | 0.00 | 0.01 | 0.01 | 50 | 1015.0 |
| 20260901220512 | 80 | 240 | 3.0 | 7.0 | 0.00 | 0.01 | 0.01 | 49 | 1015.0 |
| 20260901220010 | 81 | 207 | 2.0 | 6.0 | 0.00 | 0.01 | 0.01 | 48 | 1014.9 |
| 20260901215508 | 81 | 239 | 7.0 | 9.0 | 0.00 | 0.01 | 0.01 | 47 | 1014.7 |
| 20260901215003 | 81 | 305 | 6.0 | 9.0 | 0.00 | 0.01 | 0.01 | 47 | 1014.9 |
| 20260901214502 | 81 | 295 | 3.0 | 9.0 | 0.00 | 0.01 | 0.01 | 47 | 1014.9 |
| 20260901213956 | 81 | 250 | 1.0 | 4.0 | 0.00 | 0.01 | 0.01 | 48 | 1014.6 |
| 20260901213450 | 81 | 290 | 3.0 | 4.0 | 0.00 | 0.01 | 0.01 | 49 | 1014.4 |
| 20260901212950 | 81 | 299 | 5.0 | 7.0 | 0.00 | 0.01 | 0.01 | 48 | 1014.6 |
| 20260901212445 | 80 | 251 | 1.0 | 4.0 | 0.00 | 0.01 | 0.01 | 52 | 1014.5 |
| 20260901211942 | 80 | 246 | 2.0 | 6.0 | 0.00 | 0.01 | 0.01 | 50 | 1014.7 |
| 20260901211437 | 80 | 264 | 3.0 | 8.0 | 0.00 | 0.01 | 0.01 | 50 | 1014.7 |
| 20260901210933 | 80 | 291 | 4.0 | 7.0 | 0.00 | 0.01 | 0.01 | 51 | 1014.5 |
| 20260901210428 | 79 | 284 | 2.0 | 7.0 | 0.00 | 0.01 | 0.01 | 49 | 1014.5 |
| 20260901205925 | 81 | 251 | 4.0 | 8.0 | 0.00 | 0.01 | 0.01 | 47 | 1014.5 |
| 20260901205419 | 80 | 300 | 1.0 | 7.0 | 0.00 | 0.01 | 0.01 | 48 | 1014.6 |
| 20260901204914 | 81 | 356 | 5.0 | 7.0 | 0.00 | 0.01 | 0.01 | 47 | 1014.6 |
| 20260901204410 | 82 | 293 | 6.0 | 14.0 | 0.00 | 0.01 | 0.01 | 45 | 1014.6 |
| 20260901203910 | 82 | 291 | 2.0 | 9.0 | 0.00 | 0.01 | 0.01 | 44 | 1014.6 |
| 20260901203404 | 82 | 277 | 2.0 | 10.0 | 0.00 | 0.01 | 0.01 | 44 | 1015.0 |
| 20260901202859 | 82 | 294 | 3.0 | 7.0 | 0.00 | 0.01 | 0.01 | 44 | 1014.9 |
| 20260901202353 | 82 | 264 | 3.0 | 8.0 | 0.00 | 0.01 | 0.01 | 43 | 1014.7 |
| 20260901201851 | 83 | 263 | 6.0 | 11.0 | 0.00 | 0.01 | 0.01 | 41 | 1014.7 |
| 20260901201350 | 83 | 275 | 4.0 | 7.0 | 0.00 | 0.01 | 0.01 | 43 | 1014.9 |
| 20260901200844 | 82 | 231 | 2.0 | 13.0 | 0.00 | 0.01 | 0.01 | 42 | 1014.9 |
| 20260901200339 | 83 | 270 | 4.0 | 11.0 | 0.00 | 0.01 | 0.01 | 42 | 1015.0 |
| 20260901195838 | 84 | 157 | 5.0 | 8.0 | 0.00 | 0.01 | 0.01 | 41 | 1015.0 |
| 20260901195331 | 83 | 282 | 3.0 | 7.0 | 0.00 | 0.01 | 0.01 | 43 | 1015.1 |
| 20260901194827 | 84 | 298 | 7.0 | 8.0 | 0.00 | 0.01 | 0.01 | 41 | 1015.1 |
| 20260901194326 | 83 | 181 | 5.0 | 7.0 | 0.00 | 0.01 | 0.01 | 43 | 1015.2 |
| 20260901193823 | 84 | 303 | 4.0 | 6.0 | 0.00 | 0.01 | 0.01 | 43 | 1015.4 |
| 20260901193321 | 83 | 243 | 1.0 | 3.0 | 0.00 | 0.01 | 0.01 | 43 | 1015.2 |
| 20260901192816 | 83 | 304 | 2.0 | 4.0 | 0.00 | 0.01 | 0.01 | 43 | 1015.4 |